Location: LDNL
(36.4545°S, 141.6685°E)
Time: 18:49:19
(UTC+10:00)

A-11 Canister half - Pass Details

Date: 31 January 2022
Orbit: 1527 x 1682 km, 47.3° (Epoch: 20 May)

Event Time Altitude Azimuth Distance (km) Brightness Sun altitude
Rises 04:29:58 0° 240° (WSW) 4,915 11.5 -23.7°
Reaches altitude 10° 04:33:13 10° 236° (WSW) 3,909 11.0 -23.2°
Maximum altitude 04:43:11 67° 153° (SSE) 1,728 9.4 -21.8°
Drops below altitude 10° 04:52:44 10° 71° (ENE) 3,769 11.4 -20.4°
Sets 04:55:48 0° 68° (ENE) 4,731 11.9 -20.0°
